Location: LDNL
(36.4545°S, 141.6685°E)
Time: 22:17:00
(UTC+11:00)

ISS - Pass Details

Date: 12 December 2021
Orbit: 413 x 422 km, 51.6° (Epoch: 22 January)

Event Time Altitude Azimuth Distance (km) Brightness Sun altitude
Rises 22:18:57 0° 318° (NW) 2,352 0.0 -15.7°
Reaches altitude 10° 22:21:02 10° 320° (NW) 1,494 -1.0 -16.0°
Maximum altitude 22:24:22 69° 43° (NE) 454 -3.9 -16.5°
Drops below altitude 10° 22:27:44 10° 127° (SE) 1,510 -1.0 -16.9°
Sets 22:29:51 0° 129° (SE) 2,379 0.0 -17.2°
